Regional Weather Roundup
Issued by NWS Portland, ME

Home | Current Version | Previous Version | Text Only | Print | Product List | Glossary On
Versions: 1 2 3 4 5 6 7 8 9 10 11 12 13 14 15 16 17 18 19 20 21 22 23 24 25 26 27 28 29 30 31 32 33 34 35 36 37 38 39 40 41 42 43 44 45 46 47 48 49 50
000
ASUS41 KGYX 030910
RWRGYX
WEATHER ROUNDUP FOR MAINE AND NEW HAMPSHIRE
NATIONAL WEATHER SERVICE GRAY ME
500 AM EDT TUE MAY 03 2016

MEZ002-005-006-010-012-015-018-020-021-024-026-027-029-031000-
MAINE

CITY           SKY/WX    TMP DP  RH WIND       PRES   REMARKS
PORTLAND       CLOUDY    41  38  89 NW3       29.92R
SANFORD        CLOUDY    41  37  87 CALM      29.92S
BAR HARBOR     CLOUDY    42  41  96 NW5       29.86F
WISCASSET      CLOUDY    42  40  92 VRB3      29.90F
ROCKLAND       CLOUDY    41  39  93 N5        29.87F
FRYEBURG       CLOUDY    38  38 100 CALM      29.90S FOG
LEWISTONAUBURN CLOUDY    37  36  93 CALM      29.89S
AUGUSTA        CLOUDY    40  39  97 NW8       29.88F
WATERVILLE     CLOUDY    40  39  97 N6        29.86F
BANGOR         CLOUDY    43  40  89 N9        29.88S FOG
GREENVILLE       N/A     35  34  96 N6        29.85S
MILLINOCKET    CLOUDY    40  38  93 NW7       29.89F
HOULTON        CLOUDY    40  38  93 N7        29.86S
PRESQUE ISLE   LGT RAIN  40  38  93 N9        29.91F
FRENCHVILLE    LGT RAIN  38  35  89 N5        29.92S
CARIBOU        LGT RAIN  40  38  93 N8        29.90F
$$

NHZ002-005-008-009-011-012-014-031000-
NEW HAMPSHIRE

CITY           SKY/WX    TMP DP  RH WIND       PRES   REMARKS
PORTSMOUTH     CLOUDY    43  41  94 N3        29.89F
ROCHESTER      CLOUDY    42  39  89 CALM      29.89F
NASHUA         LGT RAIN  44  44 100 CALM      29.90F
MANCHESTER     DRZL/FOG  44  42  93 NE5       29.88F VSB 1
CONCORD        CLOUDY    42  41  96 CALM      29.90F
LACONIA        CLOUDY    43  39  87 SW3       29.90F
PLYMOUTH       CLOUDY    45  42  90 W3        29.90S
BERLIN         CLOUDY    41  38  89 CALM      29.88S
WHITEFIELD     CLOUDY    42  40  92 CALM      29.89S
JAFFREY        LGT RAIN  43  42  97 CALM      29.88F FOG
KEENE          CLOUDY    45  43  93 NW5       29.91R VSB 3/4
LEBANON        CLOUDY    44  42  93 CALM      29.92S FOG
MT WASHINGTON  CLOUDY    27  23  86 W35         N/A  WCI   9
$$

VTZ005-007-008-031000-
VERMONT

CITY           SKY/WX    TMP DP  RH WIND       PRES   REMARKS
ST JOHNSBURY     N/A     44  41  89 MISG      29.89S
MONTPELIER     CLOUDY    41  39  93 NW3       29.94S
BURLINGTON     CLOUDY    44  40  85 N5        29.94S
$$

MAZ007-012-024-CTZ003-RIZ002-NYZ038-NYZ072-031000-
SOUTHERN NEW ENGLAND AND NY

CITY           SKY/WX    TMP DP  RH WIND       PRES   REMARKS
BOSTON         LGT RAIN  45  44  97 SE3       29.94R
WORCESTER      LGT RAIN  44  44 100 S6        29.90R
NANTUCKET      CLOUDY    48  44  86 N6        29.93R
PROVIDENCE     LGT RAIN  49  46  90 E3        29.92F
HARTFORD       RAIN      48  46  93 CALM      29.89F FOG
ALBANY         CLOUDY    46  43  89 N7        29.91F
NEW YORK CITY  RAIN      54  51  90 NE8       29.86S FOG
$$

ANZ081-ANZ082-ANZ150-NHZ014-MEZ023>029-031000-
COASTAL MARINE OBSERVATIONS

STATION/POSITION TIME  TEMP    WIND        PRES    WAVE
                       AIR SEA DIR/SP/G            HT/PER
                 (UTC) (F)     (DEG/KT/KT) (MB)    (FT/S)
MOUNT DESERT ROC 0900   42     320/ 12/ 13 1010.7F
MATINICUS ROCK   0900   42     340/ 14/ 15 1010.9F
ISLE OF SHOALS   0800   44     270/  7/  8 1012.8R
CASHES LEDGE BUO 0850   43 44  330/ 10/ 12 1011.8R   5/ 8
GEORGES BANK BUO 0850   47 46              1011.8F   6/ 8
$$

.............KEY..............
   WCI - WIND CHILL
   TC  - TEMPERATURE IN CELSIUS
   VSB - VISIBILITY IN MILES
   HX  - HEAT INDEX
   FAIR- INDICATES FEW OR NO CLOUDS BELOW 12,000 FT, WITH NO
         SIGNIFICANT WEATHER AND/OR OBSTRUCTIONS TO VISIBILITY.






USA.gov is the U.S. government's official web portal to all federal, state and local government web resources and services.